EW5401 Weather Reports


Display with metric or nautical units.
time (UTC)temp
F
wind
direction
speed
MPH
gust
MPH
rain 1hr
in
rain 24hr
in
rain mn
in
humidity
%
barometer
mb
20210615104655 60 315 0.0 0.0 0.00 0.41 0.00 99 1006.6
20210615103232 60 315 0.0 0.0 0.00 0.41 0.00 98 1006.9
20210615101625 60 320 0.0 0.0 0.00 0.41 0.00 98 1006.8
20210615100143 59 108 0.0 0.0 0.00 0.41 0.00 98 1006.5
20210615094558 59 108 0.0 0.0 0.00 0.45 0.00 98 1006.4
20210615093059 59 108 0.0 0.0 0.00 0.45 0.00 97 1006.4
20210615091717 59 108 0.0 0.0 0.00 0.45 0.00 97 1006.4
20210615090130 60 108 0.0 0.0 0.00 0.45 0.00 97 1006.3
20210615084619 60 108 0.0 0.0 0.00 0.46 0.00 98 1006.7
20210615083105 60 108 0.0 0.0 0.00 0.46 0.00 98 1006.6
20210615081618 60 109 0.0 0.0 0.00 0.46 0.00 98 1006.6
20210615080118 60 109 0.0 0.0 0.00 0.46 0.00 98 1006.7
20210615074601 60 109 0.0 0.0 0.00 0.46 0.00 97 1006.8
20210615073056 60 109 0.0 0.0 0.00 0.46 0.00 97 1006.6
20210615071712 60 161 0.0 0.0 0.00 0.46 0.00 97 1006.7
20210615070054 60 161 0.0 0.0 0.00 0.46 0.00 97 1006.8
20210615064603 60 161 0.0 0.0 0.00 0.46 0.00 97 1006.9
20210615063124 60 161 0.0 0.0 0.00 0.46 0.00 97 1007.0
20210615061643 60 161 0.0 0.0 0.00 0.46 0.00 97 1007.0
20210615060110 60 161 0.0 0.0 0.00 0.46 0.00 97 1007.2
20210615054555 61 161 0.0 0.0 0.00 0.46 0.00 97 1007.1
20210615053031 61 161 0.0 0.0 0.00 0.46 0.00 97 1007.2
20210615051606 61 220 0.0 0.0 0.00 0.46 0.00 97 1007.5
20210615050058 61 220 0.0 0.0 0.00 0.46 0.00 97 1007.3
20210615044623 60 220 0.0 0.0 0.00 0.46 0.00 97 1007.5
20210615043038 61 220 0.0 0.0 0.00 0.46 0.00 96 1007.2
20210615041528 61 220 0.0 0.0 0.00 0.46 0.00 97 1007.5
20210615040037 61 220 0.0 0.0 0.00 0.46 0.00 96 1007.6
20210615034522 61 220 0.0 0.0 0.00 0.46 0.46 97 1007.5
20210615033022 61 220 0.0 0.0 0.00 0.46 0.46 97 1007.7
20210615031527 61 220 0.0 0.0 0.00 0.46 0.46 97 1007.7
20210615030036 61 220 0.0 0.0 0.00 0.46 0.46 96 1007.7
20210615024526 61 220 0.0 0.0 0.00 0.46 0.46 97 1007.9
20210615023025 61 220 0.0 0.0 0.00 0.46 0.46 96 1007.8
20210615021538 61 220 0.0 0.0 0.00 0.46 0.46 95 1007.7
20210615020110 61 220 0.0 0.0 0.00 0.46 0.46 95 1008.0
20210615014521 62 220 0.0 0.0 0.00 0.46 0.46 95 1007.9
20210615013046 62 220 0.0 0.0 0.00 0.46 0.46 94 1008.0
20210615011528 62 220 0.0 0.0 0.00 0.46 0.46 94 1008.0
20210615010014 63 220 0.0 0.0 0.00 0.46 0.46 93 1007.8
20210615004523 63 220 0.0 0.0 0.00 0.46 0.46 92 1007.3
20210615003049 63 140 0.0 0.0 0.00 0.46 0.46 93 1007.6
20210615001518 63 200 0.0 0.0 0.00 0.46 0.46 94 1008.1
20210615000104 63 200 0.0 0.0 0.00 0.46 0.46 93 1008.1
20210614234512 64 200 0.0 0.0 0.00 0.46 0.46 92 1007.5
20210614233037 64 200 0.0 1.0 0.00 0.46 0.46 90 1007.3
20210614231510 64 306 0.0 3.0 0.00 0.46 0.46 87 1007.3
20210614230008 65 97 0.0 0.0 0.00 0.46 0.46 89 1007.7
20210614224514 65 97 0.0 0.0 0.00 0.46 0.46 87 1007.6
20210614223037 65 97 0.0 1.0 0.00 0.46 0.46 85 1007.9
20210614221508 65 324 0.0 3.0 0.00 0.46 0.46 84 1007.9
20210614220010 65 78 0.0 2.0 0.00 0.46 0.46 87 1007.6
20210614214509 65 162 1.0 8.0 0.00 0.46 0.46 84 1007.8
20210614213012 65 216 1.0 8.0 0.00 0.46 0.46 84 1007.8
20210614211517 65 130 0.0 11.0 0.00 0.46 0.46 86 1007.8
20210614210007 65 212 0.0 4.0 0.00 0.46 0.46 85 1007.8
20210614204501 65 167 4.0 7.0 0.00 0.46 0.46 85 1007.8
20210614203202 64 239 1.0 7.0 0.00 0.46 0.46 86 1007.9
20210614203001 64 248 2.0 7.0 0.00 0.46 0.46 86 1007.9
20210614201815 64 100 2.0 9.0 0.00 0.46 0.46 87 1008.1
20210614200124 63 125 2.0 6.0 0.00 0.46 0.46 89 1008.4
20210614194718 63 231 0.0 1.0 0.00 0.46 0.46 89 1008.6
20210614193200 63 237 0.0 1.0 0.00 0.46 0.46 90 1008.9
20210614191642 63 45 0.0 1.0 0.00 0.46 0.46 90 1008.9
20210614190214 63 254 0.0 3.0 0.00 0.46 0.46 91 1009.1
20210614184634 62 259 0.0 3.0 0.01 0.46 0.46 91 1009.0
20210614183243 63 225 0.0 4.0 0.08 0.46 0.46 92 1009.2
20210614181609 62 232 0.0 3.0 0.08 0.46 0.46 93 1009.0
20210614180146 62 232 0.0 2.0 0.08 0.46 0.46 92 1009.2
20210614174557 62 207 0.0 5.0 0.06 0.44 0.44 90 1009.2
20210614173209 62 131 0.0 1.0 0.00 0.38 0.38 89 1009.5
20210614171740 62 87 0.0 2.0 0.00 0.38 0.38 91 1009.5
20210614170155 62 230 0.0 3.0 0.00 0.38 0.38 90 1009.7
20210614164606 62 217 0.0 5.0 0.00 0.38 0.38 89 1009.9
20210614163204 62 169 0.0 3.0 0.00 0.38 0.38 88 1010.1
20210614161618 62 214 0.0 1.0 0.00 0.38 0.38 88 1010.2
20210614160248 62 165 0.0 2.0 0.00 0.38 0.38 87 1009.9
20210614154712 62 248 0.0 3.0 0.00 0.38 0.38 87 1009.9
20210614153204 62 59 1.0 6.0 0.00 0.38 0.38 88 1009.6
20210614151641 62 234 1.0 6.0 0.00 0.38 0.38 89 1009.5
20210614150056 62 189 0.0 5.0 0.00 0.38 0.38 89 1009.6
20210614144630 62 225 0.0 1.0 0.00 0.38 0.38 90 1009.3
20210614143129 62 248 0.0 3.0 0.00 0.38 0.38 91 1009.4
20210614141618 62 219 0.0 3.0 0.00 0.38 0.38 92 1009.6
20210614140134 62 185 0.0 3.0 0.00 0.38 0.38 91 1009.7
20210614134648 62 296 0.0 0.0 0.00 0.38 0.38 91 1009.7
20210614133057 61 5 0.0 3.0 0.00 0.38 0.38 93 1009.6
20210614131655 61 343 0.0 7.0 0.00 0.38 0.38 93 1009.7
20210614130208 61 268 0.0 3.0 0.00 0.38 0.38 92 1009.9
20210614124623 61 221 0.0 3.0 0.00 0.38 0.38 92 1009.6
20210614123115 61 237 0.0 3.0 0.00 0.38 0.38 92 1009.9
20210614121615 61 167 1.0 7.0 0.00 0.38 0.38 92 1009.7
20210614120113 61 179 0.0 3.0 0.01 0.38 0.38 93 1009.7
20210614114611 60 161 0.0 3.0 0.07 0.38 0.38 94 1009.8
20210614113115 60 240 0.0 2.0 0.30 0.38 0.38 94 1009.9
20210614111553 60 148 3.0 11.0 0.33 0.38 0.38 93 1010.0
20210614110140 60 219 1.0 7.0 0.32 0.37 0.37 94 1009.9